Find Starlink 11584

NORAD ID: 63106 Int'l Des: 2025-039 Owner: SPXS Country: US Constellation: starlink operational
又名: STARLINK-11584 [DTC] celestrak
LEOCIRCULAR

当前视图

正在加载3D地球...

About Starlink 11584

Starlink 11584 (NORAD 63106) is a starlink constellation satellite (v2 mini d2c) launched Feb 27, 2025 by SPXS of US. It operates in LEO, CIRCULAR orbit with a mass of 960.00 kg.

即将过境

Passes for default location (London). Set your location on the main map for personalized predictions.

高度历史

Loading altitude history...

两行轨道根数

1 63106U 25039C 26263.07778345 .00133019 00000-0 10223-2 0 9992
2 63106 42.9996 145.5005 0001672 262.0935 97.9743 15.70871481 90189
Epoch: Sep 20, 2026 • Age: 33 hours

当前状态

高度 367.6 km
远地点 / 近地点 N/A
速度 7.69 km/s
星下点 -43.10°S, 115.55°W
发射日期 Feb 27, 2025
运行时间 1.5 years
类型 internet

技术详情

分类 Payload
质量 960.00 kg
干质量 910.00 kg
长度 0.30 m
跨度 29.00 m
形状 ? Box + pan
制造商 SPXS
平台类型 Starlink V2MD
阶段状态 In Orbit
所有者/国家 SPXS/US

Most Searched